Regional Weather Roundup
Issued by NWS Mobile, AL

Home | Current Version | Previous Version | Text Only | Print | Product List | Glossary Off
Versions: 1 2 3 4 5 6 7 8 9 10 11 12 13 14 15 16 17 18 19 20 21 22 23 24 25 26 27 28 29 30 31 32 33 34 35 36 37 38 39 40 41 42 43 44 45 46 47 48 49 50

000
ASUS44 KMOB 010410
RWRMOB
REGIONAL WEATHER ROUNDUP
NATIONAL WEATHER SERVICE MOBILE AL
1100 PM CDT TUE SEP 30 2014

NOTE: "FAIR" INDICATES FEW OR NO CLOUDS BELOW 12,000 FEET WITH NO
      SIGNIFICANT WEATHER AND/OR OBSTRUCTIONS TO VISIBILITY.

  * THESE STATIONS ARE PART OF THE UNIVERSITY OF SOUTH ALABAMA
    MESONET AND ARE NOT UNDER NWS OR FAA QUALITY CONTROL.

ALZ061>064-010500-
COASTAL ALABAMA

CITY           SKY/WX    TMP DP  RH WIND       PRES   REMARKS
MOBILE REG APT CLEAR     71  69  93 E3        29.91S
BROOKLEY FIELD CLEAR     75  69  81 E12       29.92R
USA CAMPUS*      N/A     68  68 100 CALM      29.91R
DOG RIVER*     NOT AVBL


CITY           SKY/WX    TMP DP  RH WIND       PRES   REMARKS
MOUNT VERNON*    N/A     64  63  94 CALM      29.92R
SARALAND*      NOT AVBL
BAY MINETTE*   NOT AVBL
LOXLEY*          N/A     68  66  94 CALM      29.91S
ROBERTSDALE*     N/A     68  66  94 CALM      29.91S
FAIRHOPE*        N/A     68  68 100 E2        29.90S
ELBERTA*         N/A     68  68 100 CALM      29.90R
FOLEY*         NOT AVBL
GRAND BAY*       N/A     68  68 100 CALM      29.89R
DAUPHIN ISLND* NOT AVBL
BON SCOUR NWR* NOT AVBL
GULF SHORES    CLEAR     70  68  93 CALM      29.90S

$$

ALZ051>060-010500-
INTERIOR SOUTHWEST AND SOUTH CENTRAL ALABAMA

CITY           SKY/WX    TMP DP  RH WIND       PRES   REMARKS
GREENVILLE     CLEAR     65  62  90 CALM      29.92R
EVERGREEN      CLEAR     66  64  93 CALM      29.92S FOG
CASTLEBERRY*   NOT AVBL
ATMORE*          N/A     66  66 100 CALM      29.93S
DIXIE*           N/A     66  64  94 CALM      29.90S
ANDALUSIA/OPP  CLEAR     69  64  84 CALM      29.92S HAZE
ANDALUSIA*       N/A     64  64 100 CALM      29.92S
FLORALA APT    CLEAR     65  63  93 CALM      29.93S
FLORALA*         N/A     64  64 100 CALM      29.89S

$$

FLZ001>006-010500-
WESTERN FLORIDA PANHANDLE

CITY           SKY/WX    TMP DP  RH WIND       PRES   REMARKS
PENSACOLA      CLEAR     71  68  90 E5        29.90S
NAS PENSACOLA  CLEAR     69  67  93 NE3       29.90R
MILTON         CLEAR     66  63  90 CALM      29.91S
WHTNG S FIELD  CLEAR     68  65  90 CALM      29.91S


CITY           SKY/WX    TMP DP  RH WIND       PRES   REMARKS
WALNUT HILL*   NOT AVBL
JAY*             N/A     66  64  94 E3        29.92S
DUKE FIELD     PTCLDY    66  66 100 CALM      29.91
CRESTVIEW      PTCLDY    65  64  97 CALM      29.92S
VALPARAISO     CLEAR     69  67  92 CALM      29.90S
DESTIN         CLEAR     71  68  90 CALM      29.90S

$$

MSZ076-079-010500-
INTERIOR SOUTHEAST MISSISSIPPI

CITY           SKY/WX    TMP DP  RH WIND       PRES   REMARKS
LEAKESVILLE*     N/A     70  66  88 E3        29.92R
AGRICOLA*      NOT AVBL

$$

MARINE OBSERVATIONS

STATION/POSITION TIME  TEMP    WIND        PRES    WAVE
                       AIR SEA DIR/SP/G            HT/PER
                 (UTC) (F)     (DEG/KT/KT) (MB)    (FT/S)
PASCAGOULA       0400   77     120/  5/  8 1012.1S
PETIT BOIS ISLND 0400   77     110/  6/  8 1012.5S
GRAND BAY        0300   78     110/  8     1013.0S
KATRINA CUT      0300   78     120/  9     1012.9S
CEDAR POINT      0300   77     110/  9     1012.5F
E DAUPHIN ISLAND 0400   77      90/  9/ 10 1012.3R
MIDDLE BAY LIGHT 0300   75     110/ 12     1011.9R
STATE DOCKS      0400   75 80              1012.4F
MEAHER PARK      0300   73     110/  3     1012.5R
WEEKS BAY        0300   71                   N/A
FORT MORGAN      0400   75     100/  9/ 11 1011.9S
12 S ORANGE BCH  0400   78 81   90/  8/ 10 1012.4R   2/ 3
PENSACOLA BAY    0400   75 78   90/  1/  4 1012.8R
64 S DAUPHIN ISL 0252   79 82  100/ 12/ 14 1012.5    2/ 5
67 S FORT MORGAN 0300   78                 1011.9S

$$

SELECTED LOCATIONS ACROSS THE REGION

CITY           SKY/WX    TMP DP  RH WIND       PRES   REMARKS
NEW ORLEANS    PTCLDY    77  72  84 SE6       29.88R
GULFPORT       PTCLDY    76  70  82 E7        29.88S
PASCAGOULA AP  CLEAR     67  66  97 CALM      29.90R FOG
PASCAGOULA*      N/A     75  70  83 CALM      29.89S
HATTIESBURG    CLEAR     71  68  90 CALM      29.90S
LAUREL         CLEAR    N/A N/A N/A CALM      29.90F
MERIDIAN       CLEAR     65  62  90 CALM      29.90S
JACKSON        CLEAR     71  65  81 S6        29.88S
MONTGOMERY     CLEAR     66  63  90 E3        29.92R
TROY           CLEAR     66  64  93 CALM      29.93S
KINSTON*       NOT AVBL
GENEVA*        NOT AVBL
ASHFORD*         N/A     64  64 100 CALM      29.92S
DOTHAN         CLEAR     66  65  96 CALM      29.95F
PANAMA CITY    CLEAR     70  67  90 CALM      29.89F

$$



USA.gov is the U.S. government's official web portal to all federal, state and local government web resources and services.